Harrisburg, IL

3:16 PM CST on December 11, 2019 (GMT -0600)
Harrisburg-Raleigh

Weather History for KHSB - October, 2019

Change the Weather History Date:

Wednesday, October 30, 2019

  Actual Average (KMWA) Record (KMWA)
Temperature  
Mean Temperature 48 °F -  
Max Temperature 50 °F 63 °F 80 °F (1971)
Min Temperature 45 °F 40 °F 22 °F (1976)
Degree Days  
Heating Degree Days 18    
Moisture  
Dew Point 44 °F    
Average Humidity 89    
Maximum Humidity 90    
Minimum Humidity 85    
Precipitation  
Precipitation 0.29 in - - ()
Sea Level Pressure  
Sea Level Pressure 30.02 in    
Wind  
Wind Speed 5 mph ()    
Max Wind Speed 10 mph    
Max Gust Speed -    
Visibility 5.3 miles    
Events Rain    
Averages and records for this station are not official NWS values.
T = Trace of Precipitation, MM = Missing Value Source: Averaged Metar Reports

Daily Weather History Graph

Daily Weather History Graph

Search for Another Location

Airport or City:

Astronomy

Oct. 30, 2019 Rise Set
Actual Time 7:17 AM CDT 5:57 PM CDT
Civil Twilight 6:50 AM CDT 6:24 PM CDT
Nautical Twilight 6:19 AM CDT 6:55 PM CDT
Astronomical Twilight 5:48 AM CDT 7:26 PM CDT
Moon 9:58 AM CDT (10/30) 8:08 PM CDT (10/30)
Length of Visible Light 11h 34m
Length of Day
10h 40m
Waxing Crescent, 9% of the Moon is Illuminated
Oct 30
Waxing Crescent
Nov 4
First Quarter
Nov 12
Full
Nov 19
Last Quarter
Nov 26
New

Hourly Weather History & Observations

Time (CDT) Temp. Windchill Dew Point Humidity Pressure Visibility Wind Dir Wind Speed Gust Speed Precip Events Conditions
12:15 AM 46.4 °F 43.5 °F 42.3 °F 85% 30.18 in 10.0 mi North 5.8 mph - N/A   Overcast
12:35 AM 46.0 °F 43.9 °F 42.1 °F 86% 30.19 in 10.0 mi North 4.6 mph - N/A   Overcast
12:55 AM 46.0 °F 41.9 °F 42.3 °F 87% 30.18 in 10.0 mi North 8.1 mph - N/A   Overcast
1:15 AM 45.7 °F 42.7 °F 41.9 °F 87% 30.17 in 10.0 mi North 5.8 mph - N/A   Overcast
1:35 AM 45.9 °F 42.3 °F 42.1 °F 87% 30.18 in 10.0 mi North 6.9 mph - N/A   Overcast
1:55 AM 45.7 °F 42.0 °F 42.1 °F 87% 30.17 in 10.0 mi North 6.9 mph - N/A   Overcast
2:15 AM 45.5 °F 41.8 °F 42.1 °F 88% 30.18 in 10.0 mi North 6.9 mph - N/A   Overcast
2:35 AM 45.5 °F 41.3 °F 42.3 °F 88% 30.16 in 7.0 mi North 8.1 mph - N/A   Overcast
2:55 AM 45.1 °F 39.9 °F 42.3 °F 90% 30.14 in 7.0 mi NNE 10.4 mph - N/A   Overcast
3:15 AM 45.5 °F 40.3 °F 42.3 °F 88% 30.12 in 7.0 mi NE 10.4 mph - N/A   Overcast
3:35 AM 45.5 °F 41.8 °F 42.4 °F 89% 30.12 in 7.0 mi ENE 6.9 mph - N/A   Overcast
3:55 AM 45.7 °F 42.0 °F 42.8 °F 90% 30.10 in 7.0 mi ENE 6.9 mph - N/A   Overcast
4:15 AM 45.9 °F 42.3 °F 42.8 °F 89% 30.09 in 7.0 mi ENE 6.9 mph - N/A   Overcast
4:35 AM 46.0 °F 43.9 °F 43.0 °F 89% 30.10 in 7.0 mi ENE 4.6 mph - N/A   Overcast
4:55 AM 46.4 °F 45.2 °F 43.2 °F 88% 30.10 in 7.0 mi NE 3.5 mph - N/A   Overcast
5:15 AM 46.4 °F 44.3 °F 43.3 °F 89% 30.09 in 7.0 mi NNE 4.6 mph - N/A   Overcast
5:35 AM 46.6 °F - 43.7 °F 90% 30.10 in 7.0 mi North 3.5 mph - N/A   Overcast
5:55 AM 46.6 °F - 43.5 °F 89% 30.08 in 5.0 mi NE 5.8 mph - N/A Rain Light Rain
6:15 AM 46.6 °F - 43.7 °F 90% 30.09 in 5.0 mi ENE 5.8 mph - 0.01 in Rain Light Rain
6:35 AM 46.6 °F - 43.7 °F 90% 30.08 in 5.0 mi North 4.6 mph - 0.01 in Rain Light Rain
6:55 AM 46.6 °F - 43.7 °F 90% 30.08 in 4.0 mi Calm Calm - 0.01 in Rain Light Rain
7:15 AM 46.6 °F - 43.7 °F 90% 30.06 in 4.0 mi NNE 5.8 mph - 0.01 in Rain Rain
7:35 AM 46.6 °F - 43.7 °F 90% 30.07 in 4.0 mi North 3.5 mph - 0.04 in Rain Light Rain
7:55 AM 46.6 °F - 43.7 °F 90% 30.07 in 3.0 mi North 3.5 mph - 0.04 in Rain Light Rain
8:15 AM 46.8 °F - 43.7 °F 89% 30.06 in 2.5 mi North 3.5 mph - 0.01 in Rain Light Rain
8:35 AM 46.8 °F - 43.7 °F 89% 30.07 in 2.5 mi North 3.5 mph - 0.01 in   Overcast
8:55 AM 46.9 °F - 43.9 °F 89% 30.06 in 2.5 mi North 3.5 mph - 0.01 in   Overcast
9:15 AM 47.3 °F - 44.1 °F 88% 30.06 in 2.5 mi North 3.5 mph - N/A   Overcast
9:35 AM 47.3 °F - 44.2 °F 89% 30.07 in 2.5 mi North 4.6 mph - N/A   Overcast
9:55 AM 47.3 °F - 44.2 °F 89% 30.06 in 2.0 mi North 4.6 mph - 0.01 in Rain Light Rain
10:15 AM 47.3 °F - 44.2 °F 89% 30.04 in 2.0 mi NNE 5.8 mph - 0.03 in Rain Rain
10:35 AM 47.5 °F - 44.6 °F 90% 30.04 in 3.0 mi North 5.8 mph - 0.05 in Rain Light Rain
10:55 AM 47.7 °F - 44.6 °F 89% 30.04 in 4.0 mi North 4.6 mph - 0.06 in Rain Rain
11:15 AM 47.8 °F - 44.8 °F 89% 30.04 in 5.0 mi NE 3.5 mph - N/A Rain Rain
11:35 AM 48.2 °F - 45.0 °F 89% 30.04 in 5.0 mi NNW 5.8 mph - 0.01 in Rain Rain
11:55 AM 48.0 °F - 44.8 °F 89% 30.03 in 4.0 mi NNW 8.1 mph - 0.03 in Rain Rain
12:15 PM 47.7 °F - 44.6 °F 89% 30.01 in 5.0 mi North 9.2 mph - 0.02 in Rain Rain
12:35 PM 47.8 °F - 44.8 °F 89% 30.00 in 4.0 mi North 5.8 mph - 0.05 in Rain Rain
12:55 PM 48.2 °F - 45.1 °F 89% 30.00 in 5.0 mi North 4.6 mph - 0.07 in Rain Rain
1:15 PM 48.2 °F - 45.1 °F 89% 29.98 in 4.0 mi North 6.9 mph - 0.03 in Rain Rain
1:35 PM 48.7 °F - 45.7 °F 89% 29.96 in 4.0 mi North 5.8 mph - 0.03 in Rain Light Rain
2:15 PM 49.5 °F - 46.4 °F 89% 29.95 in 3.0 mi North 4.6 mph - N/A   Overcast
2:35 PM 49.5 °F - 46.4 °F 89% 29.96 in 2.5 mi NNW 5.8 mph - N/A   Overcast
2:55 PM 50.0 °F - 46.8 °F 89% 29.95 in 2.5 mi NW 4.6 mph - N/A   Overcast
3:15 PM 50.0 °F - 46.9 °F 89% 29.95 in 3.0 mi WNW 5.8 mph - N/A   Overcast
3:35 PM 50.2 °F - 47.3 °F 90% 29.96 in 4.0 mi WNW 4.6 mph - N/A   Overcast
3:55 PM 50.4 °F - 47.3 °F 89% 29.94 in 4.0 mi NNW 5.8 mph - N/A   Overcast
4:15 PM 50.2 °F - 47.3 °F 90% 29.94 in 4.0 mi NW 4.6 mph - N/A   Overcast
4:35 PM 50.0 °F - 46.9 °F 89% 29.94 in 4.0 mi NW 4.6 mph - N/A   Overcast
4:55 PM 50.0 °F - 46.9 °F 89% 29.94 in 4.0 mi NNW 3.5 mph - N/A   Overcast
5:15 PM 50.2 °F - 47.1 °F 89% 29.94 in 5.0 mi NNW 4.6 mph - N/A   Overcast
5:35 PM 50.0 °F - 46.8 °F 89% 29.96 in 5.0 mi NW 5.8 mph - N/A   Overcast
5:55 PM 49.5 °F - 46.4 °F 89% 29.96 in 5.0 mi NW 6.9 mph - N/A   Overcast
6:15 PM 49.1 °F - 46.0 °F 89% 29.96 in 7.0 mi WNW 8.1 mph - N/A Rain Light Rain
6:35 PM 48.4 °F - 45.3 °F 89% 29.96 in 5.0 mi NW 6.9 mph - N/A   Overcast
6:55 PM 48.2 °F - 45.1 °F 89% 29.95 in 5.0 mi Calm Calm - N/A   Overcast
7:15 PM 48.2 °F - 45.0 °F 89% 29.93 in 4.0 mi North 3.5 mph - 0.02 in Rain Rain
7:35 PM 47.8 °F - 44.8 °F 89% 29.95 in 5.0 mi NW 6.9 mph - 0.02 in Rain Light Rain
7:55 PM 47.5 °F - 44.6 °F 90% 29.95 in 5.0 mi NW 5.8 mph - 0.02 in   Overcast
8:15 PM 47.3 °F - 44.4 °F 90% 29.95 in 7.0 mi NW 5.8 mph - N/A   Overcast
8:35 PM 47.1 °F - 43.9 °F 88% 29.94 in 7.0 mi NW 6.9 mph - N/A   Overcast
8:55 PM 46.6 °F - 43.7 °F 90% 29.92 in 5.0 mi North 4.6 mph - N/A   Overcast
9:15 PM 46.6 °F - 43.7 °F 90% 29.93 in 7.0 mi NNW 4.6 mph - N/A   Overcast
9:35 PM 46.6 °F - 43.7 °F 90% 29.93 in 10.0 mi Calm Calm - N/A   Overcast
9:55 PM 46.4 °F 45.2 °F 43.3 °F 89% 29.93 in 7.0 mi NNW 3.5 mph - N/A   Overcast
10:15 PM 46.4 °F - 43.2 °F 88% 29.92 in 5.0 mi Calm Calm - N/A   Overcast
10:35 PM 46.4 °F - 43.2 °F 88% 29.91 in 7.0 mi Calm Calm - N/A   Overcast
10:55 PM 46.4 °F 45.2 °F 43.2 °F 88% 29.92 in 7.0 mi NW 3.5 mph - N/A   Overcast
11:15 PM 46.2 °F 45.0 °F 43.0 °F 88% 29.90 in 3.0 mi NW 3.5 mph - N/A   Heavy Drizzle
11:35 PM 45.9 °F - 42.8 °F 89% 29.88 in 2.5 mi Calm Calm - 0.01 in   Drizzle
11:55 PM 45.9 °F - 42.8 °F 89% 29.87 in 2.0 mi Calm Calm - 0.01 in   Drizzle